Weather History for Big Delta, AK

Change the Weather History Date:

Friday, May 10, 2013

  Actual Average Record
Temperature  
Mean Temperature 46 °F -  
Max Temperature 57 °F 51 °F 72 °F (2005)
Min Temperature 34 °F 32 °F 28 °F (2000)
Degree Days  
Heating Degree Days 20    
Moisture  
Dew Point 24 °F    
Average Humidity 39    
Maximum Humidity 67    
Minimum Humidity 16    
Precipitation  
Precipitation 0.00 in - - ()
Sea Level Pressure  
Sea Level Pressure 30.13 in    
Wind  
Wind Speed 5 mph (WSW)    
Max Wind Speed 12 mph    
Max Gust Speed -    
Visibility 10 miles    
Events      
Averages and records for this station are not official NWS values.
T = Trace of Precipitation, MM = Missing Value Source: NWS Daily Summary

Daily Weather History Graph

Daily Weather History Graph

Search for Another Location

Airport:

Trip Planner

Search our weather history database for the weather conditions in past years. The results will help you decide how hot, cold, wet, or windy it might be!

Date:

Astronomy

May. 10, 2013 Rise Set
Actual Time 4:44 AM AKDT 10:36 PM AKDT
Civil Twilight 3:19 AM AKDT 12:03 AM AKDT
Nautical Twilight Sun does not rise Sun does not rise
Astronomical Twilight Sun does not rise Sun does not rise
Moon 5:13 AM AKDT (5/10) 11:45 PM AKDT (5/10)
Length of Visible Light 20h 44m
Length of Day
17h 51m
New Moon, 1% of the Moon is Illuminated
May 10
New Moon
May 17
First Quarter
May 24
Full
May 31
Last Quarter
Jun 8
New

Hourly Weather History & Observations

Time (AKDT) Temp. Windchill Dew Point Humidity Pressure Visibility Wind Dir Wind Speed Gust Speed Precip Events Conditions
12:53 AM 46.0 °F 41.9 °F 24.1 °F 42% 30.25 in 10.0 mi SSW 8.1 mph - N/A   Partly Cloudy
1:53 AM 43.0 °F 39.5 °F 25.0 °F 49% 30.25 in 10.0 mi South 5.8 mph - N/A   Overcast
2:53 AM 41.0 °F 39.0 °F 25.0 °F 53% 30.24 in 10.0 mi SSW 3.5 mph - N/A   Clear
3:53 AM 37.9 °F - 25.0 °F 60% 30.23 in 10.0 mi Calm Calm - N/A   Clear
4:53 AM 36.0 °F 33.3 °F 25.0 °F 64% 30.24 in 10.0 mi SSW 3.5 mph - N/A   Clear
5:53 AM 36.0 °F 32.1 °F 26.1 °F 67% 30.23 in 10.0 mi SW 4.6 mph - N/A   Partly Cloudy
6:53 AM 39.0 °F 35.7 °F 26.1 °F 60% 30.22 in 10.0 mi WSW 4.6 mph - N/A   Mostly Cloudy
7:53 AM 43.0 °F - 21.9 °F 43% 30.22 in 10.0 mi Calm Calm - N/A   Mostly Cloudy
8:53 AM 46.0 °F - 21.9 °F 39% 30.21 in 10.0 mi Calm Calm - N/A   Scattered Clouds
9:53 AM 48.0 °F - 21.9 °F 36% 30.19 in 10.0 mi NNW 3.5 mph - N/A   Scattered Clouds
10:53 AM 50.0 °F - 21.9 °F 33% 30.19 in 10.0 mi NW 5.8 mph - N/A   Scattered Clouds
11:53 AM 52.0 °F - 21.0 °F 30% 30.17 in 10.0 mi NNE 3.5 mph - N/A   Mostly Cloudy
12:53 PM 53.1 °F - 21.9 °F 30% 30.16 in 10.0 mi WSW 4.6 mph - N/A   Mostly Cloudy
1:53 PM 54.0 °F - 23.0 °F 30% 30.13 in 10.0 mi West 3.5 mph - N/A   Mostly Cloudy
2:53 PM 55.0 °F - 23.0 °F 29% 30.11 in 10.0 mi Calm Calm - N/A   Mostly Cloudy
3:53 PM 57.0 °F - 23.0 °F 27% 30.09 in 10.0 mi Calm Calm - N/A   Mostly Cloudy
4:53 PM 57.0 °F - 23.0 °F 27% 30.06 in 10.0 mi Calm Calm - N/A   Mostly Cloudy
5:53 PM 57.0 °F - 24.1 °F 28% 30.04 in 10.0 mi WNW 5.8 mph - N/A   Mostly Cloudy
6:53 PM 55.9 °F - 23.0 °F 28% 30.02 in 10.0 mi West 11.5 mph - N/A   Mostly Cloudy
7:53 PM 53.1 °F - 24.1 °F 32% 30.01 in 10.0 mi WSW 9.2 mph - N/A   Mostly Cloudy
8:53 PM 51.1 °F - 25.0 °F 36% 30.00 in 10.0 mi WSW 10.4 mph - N/A   Mostly Cloudy
9:31 PM 50.0 °F - 24.8 °F 37% 29.96 in 10.0 mi West 8.1 mph - N/A   Overcast
9:53 PM 48.9 °F - 26.1 °F 41% 29.99 in 10.0 mi WSW 6.9 mph - N/A   Partly Cloudy
10:53 PM 48.0 °F - 26.1 °F 42% 29.99 in 10.0 mi WSW 6.9 mph - N/A   Overcast
11:53 PM 46.9 °F - 27.0 °F 46% 29.97 in 10.0 mi WSW 9.2 mph - N/A   Overcast